Tracking 22882 objects as of 19-Apr-2021
HD Live streaming from Space Station
objects crossing your sky now

STARLINK-1842

Track STARLINK-1842 now!
10-day predictions
STARLINK-1842 is classified as:


NORAD ID: 47132
Int'l Code: 2020-088L
Perigee: 386.6 km
Apogee: 397.4 km
Inclination: 53.1 °
Period: 92.3 minutes
Semi major axis: 6762 km
RCS: Unknown
Launch date: November 25, 2020
Source: United States (US)
Launch site: AIR FORCE EASTERN TEST RANGE (AFETR)
aabbcc
Your satellite tracking list
Your tracking list is empty




NASA's NSSDC Master Catalog

Two Line Element Set (TLE):
1 47132U 20088L   21108.58335648 -.00130213  00000-0 -15395-2 0  9996
2 47132  53.0551   5.8794 0008027 291.9136 208.9453 15.60971456  1825
Source of the keplerian elements: AFSPC